Location: Burgberg
(50.1428°N, 11.0671°E)
Time: 13:39:06
(UTC+00:00)

ATLAS 2AS CENTAUR R/B - Pass Details

Date: 26 January 2020
Orbit: 927 x 1285 km, 63.7° (Epoch: 21 February)

Event Time Altitude Azimuth Distance (km) Brightness Sun altitude
Exits shadow 03:55:43 27° 196° (SSW) 2,247 4.1 -29.1°
Maximum altitude 04:00:23 64° 124° (SE) 1,405 3.4 -28.3°
Drops below altitude 10° 04:08:15 10° 46° (NE) 3,262 5.8 -27.1°
Sets 04:11:02 0° 43° (NE) 4,206 6.5 -26.6°
